Lid_Strength_Index
-1 0 1 6 10 11 14 12 10 9 9 7 6 7 8 8 9 12 2 1 0 -0 -1 -1 -1 -1 -1 -2 -2 -2 -2 -2 -2 -2 -2 -2 -3 -2 -2 -2 -3 -2 -2 -2 -2 -2 -2 -2 -2
0 0 4 7 11 14 14 11 10 9 7 5 6 6 8 9 5 4 3 0 -0 -0 -1 -1 -1 -1 -2 -2 -2 -2 -2 -2 -2 -2 -2 -2 -2 -2 -2 -2 -2 -3 -2 -2 -2 -2 -2 -2 -2
1 2 7 10 12 15 13 10 9 8 6 7 7 6 7 8 4 3 1 1 -0 0 -0 -1 -1 -1 -2 -2 -2 -2 -2 -2 -2 -3 -2 -2 -2 -2 -2 -2 -2 -2 -2 -2 -2 -2 -2 -2 -2
3 4 7 11 12 13 11 9 7 8 7 6 6 9 5 3 3 2 1 1 0 0 -1 -1 -1 -2 -2 -2 -2 -2 -2 -2 -3 -3 -3 -2 -2 -2 -2 -2 -2 -2 -2 -2 -2 -2 -2 -2 -2
4 7 11 12 11 12 10 7 7 8 8 7 7 8 7 4 2 2 1 1 1 0 -0 -1 -1 -1 -2 -2 -2 -2 -2 -2 -2 -3 -2 -2 -3 -2 -2 -2 -2 -2 -2 -2 -2 -2 -2 -2 -1
7 8 13 14 11 9 10 8 7 8 8 8 8 8 7 3 2 2 1 2 0 0 -0 -1 1 -0 -1 -1 -2 -2 -2 -2 -2 -2 -3 -3 -3 -2 -2 -2 -2 -2 -2 -2 -2 -2 -2 -2 -1
9 10 13 12 12 9 9 8 9 8 8 8 7 9 7 4 2 2 2 1 1 -0 -0 -0 -0 0 1 -0 -1 -1 -2 -2 -2 -2 -2 -2 -2 -3 -3 -2 -2 -2 -2 -2 -2 -2 -2 -1 -1
7 9 12 12 12 11 9 8 7 7 8 5 6 9 9 4 2 2 2 2 2 0 -0 0 0 -0 -0 0 1 -0 -1 -1 -2 -2 -1 -1 -1 -1 -1 -1 -2 -2 -2 -2 -2 -2 -1 -1 -2
5 11 13 11 11 10 9 9 8 6 7 6 5 5 4 2 2 3 3 3 3 2 1 0 0 0 0 -0 1 1 0 -0 -0 -0 0 0 -0 -0 -0 -0 -1 -2 -2 -2 -1 -1 -2 -2 -1
8 12 11 8 8 10 7 9 8 8 8 8 6 4 3 3 3 4 4 4 4 3 3 0 0 -0 -0 -1 0 0 0 0 -0 -0 0 -0 0 0 -0 1 -0 -1 -1 -2 -1 -1 -2 -0 1
8 11 8 7 7 7 7 7 8 9 9 7 7 6 4 4 4 4 4 3 4 3 3 2 1 0 -0 -0 0 1 -0 0 0 0 0 0 1 1 1 1 1 1 1 0 -0 0 0 1 1
10 7 7 6 6 7 8 6 7 9 8 6 6 4 4 4 4 4 3 3 3 3 2 2 1 0 -0 -0 -0 0 0 0 0 0 0 1 1 1 2 1 1 1 1 2 2 2 2 1 1
9 8 6 6 6 6 6 8 8 7 6 6 4 4 5 4 4 3 3 2 3 3 3 2 2 1 0 -0 -0 1 1 0 1 0 0 1 2 2 1 1 2 1 1 2 2 2 1 1 1
7 7 7 6 6 6 8 8 8 7 5 5 7 5 5 4 4 3 3 3 3 3 3 2 2 2 1 1 1 1 1 1 1 1 1 1 1 1 1 2 2 2 2 2 2 2 2 2 2
7 9 8 8 7 8 6 9 9 6 5 5 6 7 7 4 3 4 3 3 2 4 3 2 2 2 2 2 2 2 2 1 1 1 1 1 1 1 1 2 2 2 2 2 2 2 2 2 2
10 10 13 9 8 7 8 12 8 6 7 6 6 6 6 6 4 3 2 2 2 4 4 3 1 2 2 2 2 2 2 2 1 1 1 1 1 1 2 2 2 2 2 2 2 2 2 2 3
12 16 13 11 7 8 9 12 7 5 6 7 7 7 6 6 5 3 2 2 2 3 4 3 2 2 1 1 1 2 2 2 1 2 2 1 1 1 2 2 2 2 2 2 2 2 2 3 3
15 15 13 13 9 9 10 10 8 6 7 7 7 7 7 6 6 4 3 2 2 2 3 4 3 2 1 1 1 1 2 2 2 2 2 1 0 1 1 2 2 2 2 2 2 2 3 3 3
11 12 13 11 8 9 11 10 9 7 8 8 7 7 7 7 5 4 3 2 2 2 2 4 3 3 2 1 2 2 2 1 2 1 1 1 0 1 1 1 1 1 2 2 2 2 3 3 3
11 13 13 11 8 10 10 11 10 8 8 8 8 8 7 7 6 5 4 3 3 2 2 3 4 3 3 1 1 1 1 1 1 1 1 0 1 0 1 1 1 1 1 2 2 2 3 3 2
12 13 13 13 10 10 12 12 11 9 8 7 7 7 6 6 6 6 5 3 3 3 2 2 2 3 3 3 1 2 2 2 2 1 1 1 1 1 0 0 0 0 1 1 2 2 2 2 3
14 10 11 12 14 17 12 18 12 11 9 8 7 7 6 6 5 5 5 4 3 2 2 2 2 2 3 3 3 2 2 3 2 1 1 1 1 1 0 -0 0 0 0 1 1 1 1 2 3
12 9 11 11 14 15 14 17 14 10 11 9 8 8 7 6 5 5 4 4 3 2 2 2 1 2 2 3 3 3 3 1 1 1 1 1 1 1 0 -0 0 0 0 1 1 1 2 1 2
8 11 11 12 14 19 14 15 14 12 10 9 8 8 7 6 6 6 4 3 3 2 2 2 2 2 2 2 3 3 3 3 2 2 2 1 1 0 0 0 0 0 0 0 1 1 1 1 1
10 13 18 20 20 19 13 16 14 10 9 9 9 8 7 7 7 7 6 6 5 5 2 2 2 2 2 2 2 2 2 3 3 3 2 2 2 1 1 1 1 0 0 0 0 1 1 1 2
12 13 17 23 22 19 14 17 13 8 7 7 6 6 6 8 8 7 6 6 5 6 5 3 2 2 2 2 2 2 2 2 2 3 2 2 2 1 0 0 0 0 0 0 0 0 1 1 1
13 15 11 17 18 19 17 14 10 9 8 8 8 9 9 10 9 8 6 6 6 5 5 3 2 3 2 2 1 1 1 2 2 2 2 2 1 1 1 1 1 1 1 1 1 1 1 1 1
11 10 16 16 21 22 18 18 16 12 10 9 10 10 10 10 10 9 8 7 7 6 5 5 4 2 2 2 1 1 1 1 1 1 2 2 1 1 1 1 2 1 2 2 2 2 2 2 1
13 14 14 13 16 20 21 18 11 9 10 11 10 10 10 11 10 9 9 9 8 8 8 8 7 6 3 2 2 2 1 1 1 1 2 2 1 1 1 1 1 2 2 2 2 2 2 2 1
10 12 12 17 19 16 17 17 10 9 9 9 10 10 10 9 9 9 9 9 9 9 9 9 8 8 7 4 2 3 2 1 1 1 2 2 1 1 1 1 1 2 2 2 1 2 2 3 2